Regional Weather Roundup
Issued by NWS

Home | Current Version | Previous Version | Graphics & Text | Print | Product List | Glossary On
Versions: 1 2 3 4 5 6 7 8 9 10 11 12 13 14 15 16 17 18 19 20 21 22 23 24 25 26 27 28 29 30 31 32 33 34 35 36 37 38 39 40 41 42 43 44 45 46 47 48 49 50
000
ASUS43 KMKX 010700
RWRWI

WISCONSIN REGIONAL WEATHER ROUNDUP
NATIONAL WEATHER SERVICE MILWAUKEE/SULLIVAN WI
200 AM CDT TUE SEP 01 2015

NOTE: "FAIR" INDICATES FEW OR NO CLOUDS BELOW 12,000 FEET WITH NO
SIGNIFICANT WEATHER AND/OR OBSTRUCTIONS TO VISIBILITY.

WIZ001-002-006>008-014>016-023>028-010800-
NORTHWEST WISCONSIN

CITY           SKY/WX    TMP DP  RH WIND       PRES   REMARKS
SUPERIOR ARPT  MOCLDY    71  69  95 W3        29.87R
ASHLAND        PTCLDY    71  71 100 SW7       29.90S
HAYWARD        MOCLDY    73  70  90 S7        29.93S
SIREN          CLEAR     72  70  94 S5        29.91F
CUMBERLAND     PTCLDY    68  68 100 S5        29.94F FOG
RICE LAKE      FOG       67  66  95 CALM      29.95F VSB 1/2
CHETEK         CLEAR    N/A N/A N/A CALM      29.95S HAZE
LADYSMITH      PTCLDY    71  69  94 S5        29.98S FOG
EAU CLAIRE     NOT AVBL
MENOMONIE        N/A     69  68  97 CALM      29.94S FOG
NEW RICHMOND   PTCLDY    71  70  97 S6        29.94S
OSCEOLA        MOCLDY    71  71 100 S3        29.95S FOG
$$

WIZ003>005-009-010-017-018-010800-
NORTH CENTRAL WISCONSIN

CITY           SKY/WX    TMP DP  RH WIND       PRES   REMARKS
MANITOWISH WTR PTCLDY    68  68 100 S6        29.97F
ARBOR VITAE    CLEAR     69  67  93 S7        29.98F
WOODRUFF       CLEAR     69  67  93 S7        29.98F
RHINELANDER    CLEAR     69  66  90 SW8       30.00F
EAGLE RIVER    CLEAR     67  66  99 CALM      29.99S FOG
LAND O LAKES   CLEAR     66  66  97 CALM      30.00S FOG
PHILLIPS       MOCLDY    68  68  99 SW3       29.97S
TOMAHAWK       PTCLDY    66  64  96 CALM      30.00S FOG
MEDFORD        PTCLDY    66  66 100 S6        30.00S FOG
MERRILL        CLEAR     62  62 100 SE5       30.00S FOG
$$

WIZ029-030-035-036-043>047-010800-
CENTRAL WISCONSIN

CITY           SKY/WX    TMP DP  RH WIND       PRES   REMARKS
WAUSAU         CLEAR     68  66  93 S5        29.98F FOG
MOSINEE        CLEAR     64  64 100 S6        30.01S FOG
MARSHFIELD     CLEAR     66  63  90 S7        29.99F FOG
STEVENS POINT  CLEAR     65  64  97 S3        30.01S
WAUPACA        CLEAR     64  64  97 CALM      30.01S FOG
WAUTOMA        FOG       63  63 100 CALM      30.01S VSB 1/4
WISC RAPIDS    CLEAR     68  65  90 S5        30.00F
CAMP DOUGLAS   CLEAR     69  69 100 S8        29.98F
$$

WIZ011>013-019>022-031-037>040-048>050-010800-
NORTHEAST WISCONSIN

CITY           SKY/WX    TMP DP  RH WIND       PRES   REMARKS
ANTIGO         CLEAR     67  66  96 SW7       30.02S
SHAWANO        CLEAR     69  67  94 CALM      30.00S FOG
OCONTO         CLEAR     64  64 100 CALM      29.99S
STURGEON BAY   CLEAR     66  63  88 S9        30.02S
GREEN BAY      CLEAR     67  65  93 S3        30.00F FOG
MANITOWOC      NOT AVBL
APPLETON       CLEAR     64  64 100 CALM      30.00S FOG
CLINTONVILLE   FOG       63  61  94 CALM      30.00S VSB<1/4
OSHKOSH        CLEAR     67  65  93 S8        30.00F FOG
$$

WIZ032>034-041-042-053>061-010800-
SOUTHWEST WISCONSIN

CITY           SKY/WX    TMP DP  RH WIND       PRES   REMARKS
LA CROSSE      PTCLDY    72  70  93 S5        29.95F
SPARTA         CLOUDY    67  65  94 CALM      29.98S
VIROQUA          N/A     70  70 100 SE6       30.00S
BOSCOBEL       CLEAR     69  68  96 CALM      29.98F FOG
PRAIRIE DU CHI CLEAR     71  68  89 E7        29.97F
PLATTEVILLE    PTCLDY    72  70  96 SE8       30.00S
$$

WIZ056-057-062-063-064-067-068-010800-
SOUTH CENTRAL WISCONSIN

CITY           SKY/WX    TMP DP  RH WIND       PRES   REMARKS
REEDSBURG      CLEAR     71  68  91 CALM      29.99F
BARABOO/DELLS  CLEAR     69  65  86 S6        30.00F
LONE ROCK      NOT AVBL
MINERAL POINT  CLEAR     72  70  94 SE6       30.02S FOG
MADISON        CLEAR     72  67  84 S3        30.01S
MIDDLETON      CLEAR     69  67  93 CALM      30.02S
WATERTOWN      CLEAR     67  67 100 CALM      30.02F FOG
MONROE         CLEAR     72  68  88 S9        30.02F
JANESVILLE     CLEAR     70  68  94 CALM      30.02S FOG
$$

WIZ051-052-058>065-066-070>072-010800-
SOUTHEAST WISCONSIN

CITY           SKY/WX    TMP DP  RH WIND       PRES   REMARKS
MILWAUKEE      CLEAR     69  65  86 S5        30.03F
WAUKESHA       CLEAR     64  64 100 CALM      30.05S FOG
MILWAUKEE/TIMM CLEAR     68  63  83 S3        30.04S
RACINE         CLEAR     69  66  90 CALM      30.04F FOG
BURLINGTON     CLEAR     61  60  98 CALM      30.03F FOG
KENOSHA        CLEAR     66  65  96 S3        30.03F
FOND DU LAC    CLEAR     68  66  93 S5        30.01F
SHEBOYGAN      FOG       62  61  96 CALM      30.03S VSB 1/2
WEST BEND        N/A     64  63  94 CALM      30.03F FOG
JUNEAU         FOG       66  65  99 SE3       30.04S VSB 1/4
$$

LSZ147-162-010800-
LAKE SUPERIOR

STATION/POSITION TIME  TEMP    WIND        PRES    WAVE
                       AIR SEA DIR/SP/G            HT/PER
                 (UTC) (F)     (DEG/KT/KT) (MB)    (FT/S)
W MID LAKE BUOY  0550   62 54  210/ 14/ 16 1011.0R   1/ 3
DEVILS ISLAND    0600   74     190/ 11/ 14 1010.9S
PORT WING        0600   74     190/  8/ 11 1011.5
SAXON HARBOR     0640   74     200/  6/ 10 1011.9S
$$

LMZ867-665-643>646-010800-
LAKE MICHIGAN

STATION/POSITION TIME  TEMP    WIND        PRES    WAVE
                       AIR SEA DIR/SP/G            HT/PER
                 (UTC) (F)     (DEG/KT/KT) (MB)    (FT/S)
CHAMBERS ISLAND  0600   68     170/  5/ 10 1015.6R
S GREEN BAY BUOY 0600   67 64  180/ 10/ 12 1017.0S
N MID LAKE BUOY  0550   64 65  210/ 16/ 17 1015.4S   3/ 4
NORTHPORT PIER   0600   63     160/  5/  7 1015.6S
KEWAUNEE LAKESHO 0600   50     160/  2/  3 1015.4R
SHEBOYGAN LAKESH 0600   62     190/  8/  9 1016.9S
PORT WASHINGTON  0600   56      CALM  /  1 1017.6R
ATWATER BUOY     0600   58 51  160/  6/  6 1018.4R
MILWAUKEE LAKESH 0610   63     180/  3/  3   N/A
S MID LAKE BUOY  0550   71 69  150/  8/ 10 1017.0S
KENOSHA   LAKESH 0600   69     180/  6/  7 1016.9S
$$

TC  - TEMPERATURE IN CELSIUS
VSB - VISIBILITY IN STATUTE MILES
WCI - WIND CHILL INDEX
HX  - HEAT INDEX



USA.gov is the U.S. government's official web portal to all federal, state and local government web resources and services.